This is the latest recevied weather packets stored in our database for station/object KE8GJZ-2. If no packets are shown the sender has not sent any weather packets the latest 10 day(s).
| Time | Temp. | Humidity | Pressure | Rain* | Wind** | Luminosity | Snow |
|---|---|---|---|---|---|---|---|
| 1778129562 | 7.78° C | 69% | 1013.6 hPa | 0 mm | - | 0 W/m² | - |
| 1778129260 | 7.78° C | 68% | 1013.6 hPa | 0 mm | - | 0 W/m² | - |
| 1778128956 | 7.78° C | 70% | 1013.5 hPa | 0 mm | - | 0 W/m² | - |
| 1778128652 | 7.78° C | 70% | 1013.4 hPa | 0 mm | - | 0 W/m² | - |
| 1778128349 | 7.22° C | 73% | 1013.5 hPa | 0 mm | - | 0 W/m² | - |
| 1778128046 | 7.22° C | 75% | 1013.5 hPa | 0 mm | - | 0 W/m² | - |
| 1778127740 | 6.67° C | 72% | 1013.7 hPa | 0 mm | - | 0 W/m² | - |
| 1778127438 | 6.67° C | 70% | 1013.4 hPa | 0 mm | - | 0 W/m² | - |
| 1778127135 | 6.67° C | 69% | 1013.5 hPa | 0 mm | - | 0 W/m² | - |
| 1778126832 | 6.67° C | 68% | 1013.4 hPa | 0 mm | - | 0 W/m² | - |
| 1778126528 | 6.67° C | 69% | 1013.5 hPa | 0 mm | - | 0 W/m² | - |
| 1778126224 | 6.67° C | 69% | 1013.6 hPa | 0 mm | - | 0 W/m² | - |
| 1778125920 | 6.67° C | 68% | 1013.5 hPa | 0 mm | - | 0 W/m² | - |
| 1778125616 | 6.67° C | 68% | 1013.6 hPa | 0 mm | - | 0 W/m² | - |
| 1778125315 | 6.67° C | 67% | 1013.6 hPa | 0 mm | - | 0 W/m² | - |
| 1778125013 | 7.22° C | 66% | 1013.4 hPa | 0 mm | - | 0 W/m² | - |
| 1778124710 | 7.22° C | 66% | 1013.4 hPa | 0 mm | - | 0 W/m² | - |
| 1778124407 | 7.22° C | 65% | 1013.6 hPa | 0 mm | - | 0 W/m² | - |
| 1778124103 | 7.78° C | 65% | 1013.3 hPa | 0 mm | - | 0 W/m² | - |
| 1778123800 | 7.78° C | 63% | 1013.4 hPa | 0 mm | - | 0 W/m² | - |
| 1778123496 | 7.78° C | 62% | 1013.4 hPa | 0 mm | - | 0 W/m² | - |
| 1778123193 | 8.33° C | 60% | 1013.6 hPa | 0 mm | - | 0 W/m² | - |
| 1778122891 | 8.33° C | 60% | 1013.5 hPa | 0 mm | - | 0 W/m² | - |
| 1778122588 | 8.89° C | 60% | 1013.4 hPa | 0 mm | - | 0 W/m² | - |
| 1778122284 | 8.89° C | 59% | 1013.4 hPa | 0 mm | - | 0 W/m² | - |
* Rain latest hour (hover to see other rain measurements)
** Current wind speed in m/s (hover to see current wind gust speed)